Latest Coastal Weather Observations for Holmes Reef

IDQ60701

Issued at 5:42 pm EST Thursday 7 May 2015 (issued every 10 minutes, with the page automatically refreshed every 10 minutes)

About coastal observations | Map of coastal stations | Coastal observations for QLD | Marine services | Other Formats
Station Details ID: 200732 Name: HOLMES REEF Lat: -16.47 Lon: 147.87 Height: 1.9 m
Data from the previous 72 hours. | See also: Recent months at Holmes Reef
Date/Time
EST
Temp

°C
Wind Pressure Rain
since 9am
mm
Weather Cloud Vis
km
Sea
Height
m
Swell
Dir
 
Speed
knots
Gust
knots
hPa Trend Height
m
Period
s
Dir
07/05:30pm 26.3 SSE 19 22 1012.3 - - - - - - - - -
07/05:15pm 26.3 SSE 19 - 1011.8 - - - - - - - - -
07/05:00pm 26.5 SSE 19 23 1012.1 - - - - - - - - -
07/04:30pm 26.7 SSE 18 21 1012.0 - - - - - - - - -
07/04:15pm 26.8 SSE 17 - 1011.6 - - - - - - - - -
07/04:00pm 26.6 SSE 18 20 1011.8 - - - - - - - - -
07/03:30pm 26.8 SSE 17 21 1011.7 - - - - - - - - -
07/03:15pm 26.8 SSE 17 - 1011.5 - - - - - - - - -
07/03:00pm 26.8 SSE 16 19 1011.8 - - - - - - - - -
07/02:30pm 26.9 SSE 15 17 1012.0 - - - - - - - - -
07/02:15pm 26.6 SSE 15 - 1011.7 - - - - - - - - -
07/02:00pm 26.7 SSE 15 18 1012.0 - - - - - - - - -
07/01:30pm 26.7 SSE 16 18 1012.3 - - - - - - - - -
07/01:15pm 26.7 SSE 16 - 1012.2 - - - - - - - - -
07/01:00pm 26.8 SSE 15 18 1012.8 - - - - - - - - -
07/12:30pm 26.8 SSE 16 19 1013.2 - - - - - - - - -
07/12:15pm 26.8 SSE 15 - 1012.9 - - - - - - - - -
07/12:00pm 26.7 SSE 15 17 1013.4 - - - - - - - - -
07/11:30am 26.7 SSE 15 17 1013.6 - - - - - - - - -
07/11:15am 26.7 SSE 14 - 1013.6 - - - - - - - - -
07/11:00am 26.7 SSE 15 17 1014.0 - - - - - - - - -
07/10:30am 26.7 SSE 15 17 1014.3 - - - - - - - - -
07/10:15am 26.6 SE 15 - 1014.1 - - - - - - - - -
07/10:00am 26.4 SE 14 18 1014.5 - - - - - - - - -
07/09:30am 26.6 SE 14 17 1014.5 - - - - - - - - -
07/09:15am 26.4 SE 13 - 1014.2 - - - - - - - - -
07/09:00am 26.3 SE 13 16 1014.4 - - - - - - - - -
07/08:30am 26.2 SE 13 15 1014.4 - - - - - - - - -
07/08:15am 26.2 SE 13 - 1014.0 - - - - - - - - -
07/08:00am 26.2 SE 13 15 1014.2 - - - - - - - - -
07/07:30am 26.1 SE 12 14 1013.9 - - - - - - - - -
07/07:15am 26.0 ESE 12 - 1013.4 - - - - - - - - -
07/07:00am 26.0 ESE 11 13 1013.6 - - - - - - - - -
07/06:30am 25.8 ESE 12 15 1013.3 - - - - - - - - -
07/06:00am 25.9 ESE 12 14 1012.8 - - - - - - - - -
07/05:30am 26.0 ESE 12 15 1012.6 - - - - - - - - -
07/05:00am 26.0 ESE 13 15 1012.4 - - - - - - - - -
07/04:30am 25.9 ESE 14 17 1012.2 - - - - - - - - -
07/03:15am 25.9 ESE 16 - 1011.8 - - - - - - - - -
07/03:00am 25.9 ESE 16 18 1012.3 - - - - - - - - -
07/02:30am 26.0 ESE 16 19 1012.4 - - - - - - - - -
07/02:15am 26.0 ESE 16 - 1012.2 - - - - - - - - -
07/02:00am 26.0 ESE 16 18 1012.6 - - - - - - - - -
07/01:30am 26.0 E 17 19 1012.9 - - - - - - - - -
07/01:15am 26.0 E 15 - 1012.7 - - - - - - - - -
07/01:00am 26.0 ESE 17 19 1013.1 - - - - - - - - -
07/12:30am 26.1 ESE 18 21 1013.3 - - - - - - - - -
07/12:15am 26.1 ESE 17 19 1013.2 - - - - - - - - -
 
Date/Time
EST
Temp

°C
Wind Pressure Rain
since 9am
mm
Weather Cloud Vis
km
Sea
Height
m
Swell
Dir
 
Speed
knots
Gust
knots
hPa Trend Height
m
Period
s
Dir
06/11:30pm 26.1 ESE 19 22 1013.5 - - - - - - - - -
06/11:00pm 26.2 ESE 19 22 1013.5 - - - - - - - - -
06/10:30pm 26.2 ESE 21 24 1013.5 - - - - - - - - -
06/10:00pm 26.2 SE 20 23 1013.5 - - - - - - - - -
06/09:30pm 26.2 SE 21 24 1013.4 - - - - - - - - -
06/09:15pm 26.3 SE 20 - 1013.1 - - - - - - - - -
06/09:00pm 26.2 ESE 21 24 1013.3 - - - - - - - - -
06/08:30pm 26.3 SE 20 24 1013.2 - - - - - - - - -
06/08:15pm 26.3 SE 18 - 1012.8 - - - - - - - - -
06/08:00pm 26.3 SE 17 21 1013.0 - - - - - - - - -
06/07:30pm 26.3 SE 17 20 1012.7 - - - - - - - - -
06/07:15pm 26.4 SE 18 - 1012.2 - - - - - - - - -
06/07:00pm 26.3 SE 17 20 1012.3 - - - - - - - - -
06/06:30pm 26.3 SE 17 19 1011.9 - - - - - - - - -
06/06:15pm 26.2 SE 17 - 1011.4 - - - - - - - - -
06/06:00pm 26.2 SE 17 20 1011.6 - - - - - - - - -
06/05:30pm 26.3 SE 18 21 1011.2 - - - - - - - - -
06/05:15pm 26.3 SE 17 - 1010.8 - - - - - - - - -
06/05:00pm 26.4 SSE 17 20 1011.0 - - - - - - - - -
06/04:30pm 26.6 SSE 17 21 1010.8 - - - - - - - - -
06/04:15pm 26.6 SE 18 - 1010.5 - - - - - - - - -
06/04:00pm 26.5 SSE 18 21 1010.7 - - - - - - - - -
06/03:30pm 26.6 SSE 17 20 1010.6 - - - - - - - - -
06/03:15pm 26.5 SSE 17 - 1010.4 - - - - - - - - -
06/03:00pm 26.6 SSE 16 19 1010.7 - - - - - - - - -
06/02:30pm 26.6 SSE 16 19 1010.9 - - - - - - - - -
06/02:15pm 26.4 SSE 17 - 1010.8 - - - - - - - - -
06/02:00pm 26.5 SSE 16 19 1011.2 - - - - - - - - -
06/01:30pm 26.6 SSE 16 19 1011.6 - - - - - - - - -
06/01:15pm 26.5 SSE 15 - 1011.5 - - - - - - - - -
06/01:00pm 26.5 SSE 15 18 1012.0 - - - - - - - - -
06/12:30pm 26.6 SSE 15 17 1012.4 - - - - - - - - -
06/12:15pm 26.5 SSE 15 - 1012.3 - - - - - - - - -
06/12:00pm 26.6 SSE 15 18 1012.8 - - - - - - - - -
06/11:30am 26.6 SE 14 17 1013.1 - - - - - - - - -
06/11:15am 26.7 SE 15 - 1013.0 - - - - - - - - -
06/11:00am 26.5 SE 14 16 1013.5 - - - - - - - - -
06/10:30am 26.6 SE 14 16 1013.7 - - - - - - - - -
06/10:15am 26.7 SE 13 - 1013.5 - - - - - - - - -
06/10:00am 26.5 SE 13 16 1013.7 - - - - - - - - -
06/09:30am 26.5 SSE 14 16 1013.6 - - - - - - - - -
06/09:15am 26.5 SSE 14 - 1013.2 - - - - - - - - -
06/09:00am 26.5 SSE 15 17 1013.4 - - - - - - - - -
06/08:30am 26.6 SSE 14 17 1013.2 - - - - - - - - -
06/08:15am 26.5 SSE 14 - 1013.0 - - - - - - - - -
06/08:00am 26.5 SSE 15 17 1013.3 - - - - - - - - -
06/07:30am 26.3 SSE 13 15 1013.2 - - - - - - - - -
06/07:15am 26.2 SE 14 - 1012.8 - - - - - - - - -
06/07:00am 26.1 SE 14 15 1013.0 - - - - - - - - -
06/06:30am 25.8 SE 14 16 1012.6 - - - - - - - - -
06/06:15am 25.9 SE 14 - 1012.2 - - - - - - - - -
06/06:00am 25.8 SE 14 17 1012.3 - - - - - - - - -
06/05:30am 25.8 ESE 16 18 1012.1 - - - - - - - - -
06/05:15am 25.8 ESE 15 - 1011.6 - - - - - - - - -
06/05:00am 25.9 ESE 16 17 1011.8 - - - - - - - - -
06/04:30am 26.0 ESE 15 17 1011.5 - - - - - - - - -
06/04:00am 25.8 SE 13 16 1011.4 - - - - - - - - -
06/03:30am 25.8 ESE 13 15 1011.4 - - - - - - - - -
06/03:15am 25.8 ESE 13 - 1011.1 - - - - - - - - -
06/03:00am 25.9 ESE 13 15 1011.4 - - - - - - - - -
06/02:30am 25.8 ESE 12 15 1011.5 - - - - - - - - -
06/02:15am 25.7 SE 11 - 1011.2 - - - - - - - - -
06/02:00am 25.8 ESE 11 13 1011.5 - - - - - - - - -
06/01:30am 25.9 ESE 11 13 1011.8 - - - - - - - - -
06/01:15am 25.9 ESE 12 - 1011.7 - - - - - - - - -
06/01:00am 26.0 ESE 14 17 1012.1 - - - - - - - - -
06/12:30am 26.1 E 14 16 1012.3 - - - - - - - - -
06/12:15am 26.1 E 16 - 1012.0 - - - - - - - - -
06/12:00am 26.2 ESE 15 19 1012.4 - - - - - - - - -
 
Date/Time
EST
Temp

°C
Wind Pressure Rain
since 9am
mm
Weather Cloud Vis
km
Sea
Height
m
Swell
Dir
 
Speed
knots
Gust
knots
hPa Trend Height
m
Period
s
Dir
05/11:30pm 26.1 E 16 19 1012.3 - - - - - - - - -
05/11:15pm 25.9 ESE 15 - 1011.9 - - - - - - - - -
05/11:00pm 26.1 ESE 15 16 1012.3 - - - - - - - - -
05/10:30pm 26.1 ESE 14 17 1012.0 - - - - - - - - -
05/10:15pm 26.1 ESE 14 - 1011.7 - - - - - - - - -
05/10:00pm 26.0 ESE 14 16 1012.0 - - - - - - - - -
05/09:30pm 26.1 ESE 15 17 1012.0 - - - - - - - - -
05/09:15pm 26.1 ESE 15 - 1011.7 - - - - - - - - -
05/09:00pm 26.1 ESE 15 18 1011.9 - - - - - - - - -
05/08:30pm 26.2 ESE 16 18 1011.7 - - - - - - - - -
05/08:15pm 26.2 ESE 15 - 1011.4 - - - - - - - - -
05/08:00pm 26.1 ESE 16 19 1011.4 - - - - - - - - -
05/07:30pm 26.0 ESE 16 18 1011.0 - - - - - - - - -
05/07:15pm 26.0 ESE 15 - 1010.5 - - - - - - - - -
05/07:00pm 26.1 ESE 15 18 1010.7 - - - - - - - - -
05/06:30pm 26.0 ESE 15 18 1010.4 - - - - - - - - -
05/06:15pm 26.0 SE 15 - 1010.1 - - - - - - - - -
05/06:00pm 26.1 ESE 16 19 1010.2 - - - - - - - - -
05/05:30pm 26.2 SE 15 19 1010.1 - - - - - - - - -
05/05:15pm 26.2 SE 14 - 1009.7 - - - - - - - - -
05/05:00pm 26.2 SE 14 17 1009.9 - - - - - - - - -
05/04:30pm 26.2 SE 14 16 1009.8 - - - - - - - - -
05/04:15pm 26.3 SE 14 - 1009.5 - - - - - - - - -
05/04:00pm 26.2 SE 13 15 1009.8 - - - - - - - - -
05/03:30pm 26.2 SE 13 16 1009.6 - - - - - - - - -
05/03:15pm 26.2 SE 14 - 1009.4 - - - - - - - - -
05/03:00pm 26.3 SE 14 16 1009.8 - - - - - - - - -
05/02:30pm 26.2 SE 14 16 1009.9 - - - - - - - - -
05/02:15pm 26.3 SE 14 - 1009.8 - - - - - - - - -
05/02:00pm 26.2 SE 13 16 1010.3 - - - - - - - - -
05/01:30pm 26.2 SE 13 16 1010.5 - - - - - - - - -
05/01:15pm 26.2 SE 12 - 1010.5 - - - - - - - - -
05/01:00pm 26.2 SE 13 16 1010.9 - - - - - - - - -
05/12:30pm 26.3 SE 13 15 1011.4 - - - - - - - - -
05/12:15pm 26.3 SE 13 - 1011.4 - - - - - - - - -
05/12:00pm 26.2 SE 12 14 1011.9 - - - - - - - - -
05/11:30am 26.0 SE 12 15 1012.4 - - - - - - - - -
05/11:15am 26.1 SE 12 - 1012.3 - - - - - - - - -
05/11:00am 26.0 SE 13 16 1012.8 - - - - - - - - -
05/10:30am 26.1 SE 13 15 1013.1 - - - - - - - - -
05/10:15am 25.9 SE 13 - 1012.9 - - - - - - - - -
05/10:00am 26.0 SE 13 17 1013.3 - - - - - - - - -
05/09:30am 25.9 SE 13 17 1013.3 - - - - - - - - -
05/09:15am 25.8 SE 12 - 1012.9 - - - - - - - - -
05/09:00am 25.7 SE 13 15 1013.0 - - - - - - - - -
05/08:30am 25.8 SE 13 17 1012.8 - - - - - - - - -
05/08:15am 25.8 SE 14 - 1012.4 - - - - - - - - -
05/08:00am 25.9 SE 14 17 1012.5 - - - - - - - - -
05/07:30am 25.8 SE 15 18 1012.2 - - - - - - - - -
05/07:15am 25.8 SE 15 - 1011.7 - - - - - - - - -
05/07:00am 25.6 SE 15 19 1011.7 - - - - - - - - -
05/06:30am 25.4 SE 15 17 1011.4 - - - - - - - - -
05/06:15am 25.5 SE 15 - 1010.9 - - - - - - - - -
05/06:00am 25.5 SE 14 17 1011.0 - - - - - - - - -
05/05:30am 25.5 SE 13 16 1010.9 - - - - - - - - -
05/05:15am 25.4 SE 14 - 1010.6 - - - - - - - - -
05/05:00am 25.6 SE 14 17 1010.8 - - - - - - - - -
05/04:30am 25.5 SE 13 15 1010.8 - - - - - - - - -
05/04:15am 25.4 ESE 13 - 1010.5 - - - - - - - - -
05/04:00am 25.4 ESE 14 16 1010.9 - - - - - - - - -
05/03:30am 25.6 ESE 12 15 1011.0 - - - - - - - - -
05/03:15am 25.5 E 12 - 1010.7 - - - - - - - - -
05/03:00am 25.5 E 13 15 1011.1 - - - - - - - - -
05/02:30am 25.6 E 13 14 1011.3 - - - - - - - - -
05/02:15am 25.6 ESE 12 - 1011.1 - - - - - - - - -
05/02:00am 25.5 ESE 12 14 1011.6 - - - - - - - - -
05/01:30am 25.7 E 13 15 1012.0 - - - - - - - - -
05/01:15am 25.7 E 13 - 1011.8 - - - - - - - - -
05/01:00am 25.8 E 13 15 1012.3 - - - - - - - - -
05/12:30am 25.9 ESE 13 15 1012.6 - - - - - - - - -
05/12:15am 25.8 ESE 13 - 1012.6 - - - - - - - - -
05/12:00am 25.9 ESE 12 14 1013.0 - - - - - - - - -
 
Date/Time
EST
Temp

°C
Wind Pressure Rain
since 9am
mm
Weather Cloud Vis
km
Sea
Height
m
Swell
Dir
 
Speed
knots
Gust
knots
hPa Trend Height
m
Period
s
Dir
04/11:30pm 26.0 ESE 12 15 1013.0 - - - - - - - - -
04/11:15pm 25.9 ESE 12 - 1012.7 - - - - - - - - -
04/11:00pm 26.0 ESE 13 15 1013.1 - - - - - - - - -
04/10:30pm 25.9 ESE 13 15 1013.1 - - - - - - - - -
04/10:15pm 26.0 ESE 14 - 1012.8 - - - - - - - - -
04/10:00pm 26.1 ESE 14 16 1013.1 - - - - - - - - -
04/09:30pm 26.0 SE 14 16 1012.9 - - - - - - - - -
04/09:15pm 26.0 ESE 14 - 1012.6 - - - - - - - - -
04/09:00pm 26.1 ESE 14 16 1012.9 - - - - - - - - -
04/08:30pm 26.1 SE 13 16 1012.8 - - - - - - - - -
04/08:15pm 26.1 SE 14 - 1012.3 - - - - - - - - -
04/08:00pm 26.1 ESE 13 16 1012.5 - - - - - - - - -
04/07:30pm 26.1 SE 14 16 1012.3 - - - - - - - - -
04/07:15pm 26.1 ESE 12 - 1011.9 - - - - - - - - -
04/07:00pm 26.1 ESE 12 14 1012.0 - - - - - - - - -
04/06:30pm 26.2 SE 12 14 1011.8 - - - - - - - - -
04/06:15pm 26.1 SE 13 - 1011.3 - - - - - - - - -
04/06:00pm 26.2 SE 12 14 1011.5 - - - - - - - - -

Other Formats:

Comma delimited format used in spreadsheet applications
http://www.bom.gov.au/fwo/IDQ60701/IDQ60701.94289.axf

JavaScript Object Notation format (JSON) in row-major order
http://www.bom.gov.au/fwo/IDQ60701/IDQ60701.94289.json